Location: Kernascl�den
(48.0062°N, 3.3198°W)
Time: 17:28:24
(UTC+00:00)

ERS-2 - Pass Details

Date: 21 January 2021
Orbit: 492 x 497 km, 98.6° (Epoch: 28 February)

Event Time Altitude Azimuth Distance (km) Brightness Sun altitude
Exits shadow 18:55:07 25° 10° (N) 1,034 3.5 -19.5°
Maximum altitude 18:57:08 79° 287° (WNW) 509 2.1 -19.8°
Drops below altitude 10° 19:00:45 10° 200° (SSW) 1,683 5.1 -20.4°
Sets 19:02:48 0° 199° (SSW) 2,560 6.1 -20.8°
